#datetime,building,power
2021-10-18T00:00:00,mbh,289.00
2021-10-18T00:01:00,mbh,301.00
2021-10-18T00:02:00,mbh,302.00
2021-10-18T00:03:00,mbh,284.00
2021-10-18T00:04:00,mbh,280.00
2021-10-18T00:05:00,mbh,280.00
2021-10-18T00:06:00,mbh,279.00
2021-10-18T00:07:00,mbh,275.00
2021-10-18T00:08:00,mbh,281.00
2021-10-18T00:09:00,mbh,284.00
2021-10-18T00:10:00,mbh,292.00
2021-10-18T00:11:00,mbh,292.00
2021-10-18T00:12:00,mbh,283.00
2021-10-18T00:13:00,mbh,280.00
2021-10-18T00:14:00,mbh,283.00
2021-10-18T00:15:00,mbh,288.00
2021-10-18T00:16:00,mbh,287.00
2021-10-18T00:17:00,mbh,282.00
2021-10-18T00:18:00,mbh,284.00
2021-10-18T00:19:00,mbh,288.00
2021-10-18T00:20:00,mbh,305.00
2021-10-18T00:21:00,mbh,305.00
2021-10-18T00:22:00,mbh,305.00
2021-10-18T00:23:00,mbh,269.00
2021-10-18T00:24:00,mbh,267.00
2021-10-18T00:25:00,mbh,267.00
2021-10-18T00:26:00,mbh,274.00
2021-10-18T00:27:00,mbh,276.00
2021-10-18T00:28:00,mbh,274.00
2021-10-18T00:29:00,mbh,276.00
2021-10-18T00:30:00,mbh,274.00
2021-10-18T00:31:00,mbh,270.00
2021-10-18T00:32:00,mbh,271.00
2021-10-18T00:33:00,mbh,271.00
2021-10-18T00:34:00,mbh,280.00
2021-10-18T00:35:00,mbh,280.00
2021-10-18T00:36:00,mbh,280.00
2021-10-18T00:37:00,mbh,299.00
2021-10-18T00:38:00,mbh,276.00
2021-10-18T00:39:00,mbh,279.00
2021-10-18T00:40:00,mbh,280.00
2021-10-18T00:41:00,mbh,276.00
2021-10-18T00:42:00,mbh,286.00
2021-10-18T00:43:00,mbh,280.00
2021-10-18T00:44:00,mbh,276.00
2021-10-18T00:45:00,mbh,279.00
2021-10-18T00:46:00,mbh,275.00
2021-10-18T00:47:00,mbh,281.00
2021-10-18T00:48:00,mbh,307.00
2021-10-18T00:49:00,mbh,272.00
2021-10-18T00:50:00,mbh,277.00
2021-10-18T00:51:00,mbh,279.00
2021-10-18T00:52:00,mbh,279.00
2021-10-18T00:53:00,mbh,304.00
2021-10-18T00:54:00,mbh,275.00
2021-10-18T00:55:00,mbh,275.00
2021-10-18T00:56:00,mbh,276.00
2021-10-18T00:57:00,mbh,278.00
2021-10-18T00:58:00,mbh,278.00
2021-10-18T00:59:00,mbh,304.00
2021-10-18T01:00:00,mbh,286.00
2021-10-18T01:01:00,mbh,273.00
2021-10-18T01:02:00,mbh,267.00
2021-10-18T01:03:00,mbh,270.00
2021-10-18T01:04:00,mbh,293.00
2021-10-18T01:05:00,mbh,298.00
2021-10-18T01:06:00,mbh,308.00
2021-10-18T01:07:00,mbh,277.00
2021-10-18T01:08:00,mbh,270.00
2021-10-18T01:09:00,mbh,280.00
2021-10-18T01:10:00,mbh,275.00
2021-10-18T01:11:00,mbh,271.00
2021-10-18T01:12:00,mbh,274.00
2021-10-18T01:13:00,mbh,271.00
2021-10-18T01:14:00,mbh,275.00
2021-10-18T01:15:00,mbh,280.00
2021-10-18T01:16:00,mbh,274.00
2021-10-18T01:17:00,mbh,275.00
2021-10-18T01:18:00,mbh,271.00
2021-10-18T01:19:00,mbh,272.00
2021-10-18T01:20:00,mbh,272.00
2021-10-18T01:21:00,mbh,268.00
2021-10-18T01:22:00,mbh,308.00
2021-10-18T01:23:00,mbh,309.00
2021-10-18T01:24:00,mbh,279.00
2021-10-18T01:25:00,mbh,280.00
2021-10-18T01:26:00,mbh,274.00
2021-10-18T01:27:00,mbh,302.00
2021-10-18T01:28:00,mbh,275.00
2021-10-18T01:29:00,mbh,276.00
2021-10-18T01:30:00,mbh,278.00
2021-10-18T01:31:00,mbh,286.00
2021-10-18T01:32:00,mbh,277.00
2021-10-18T01:33:00,mbh,278.00
2021-10-18T01:34:00,mbh,302.00
2021-10-18T01:35:00,mbh,279.00
2021-10-18T01:36:00,mbh,277.00
2021-10-18T01:37:00,mbh,310.00
2021-10-18T01:38:00,mbh,308.00
2021-10-18T01:39:00,mbh,275.00
2021-10-18T01:40:00,mbh,299.00
2021-10-18T01:41:00,mbh,299.00
2021-10-18T01:42:00,mbh,280.00
2021-10-18T01:43:00,mbh,273.00
2021-10-18T01:44:00,mbh,277.00
2021-10-18T01:45:00,mbh,279.00
2021-10-18T01:46:00,mbh,276.00
2021-10-18T01:47:00,mbh,298.00
2021-10-18T01:48:00,mbh,297.00
2021-10-18T01:49:00,mbh,316.00
2021-10-18T01:50:00,mbh,299.00
2021-10-18T01:51:00,mbh,282.00
2021-10-18T01:52:00,mbh,280.00
2021-10-18T01:53:00,mbh,293.00
2021-10-18T01:54:00,mbh,292.00
2021-10-18T01:55:00,mbh,285.00
2021-10-18T01:56:00,mbh,283.00
2021-10-18T01:57:00,mbh,275.00
2021-10-18T01:58:00,mbh,280.00
2021-10-18T01:59:00,mbh,274.00
2021-10-18T02:00:00,mbh,279.00
2021-10-18T02:01:00,mbh,307.00
2021-10-18T02:02:00,mbh,283.00
2021-10-18T02:03:00,mbh,273.00
2021-10-18T02:04:00,mbh,275.00
2021-10-18T02:05:00,mbh,273.00
2021-10-18T02:06:00,mbh,283.00
2021-10-18T02:07:00,mbh,279.00
2021-10-18T02:08:00,mbh,286.00
2021-10-18T02:09:00,mbh,311.00
2021-10-18T02:10:00,mbh,278.00
2021-10-18T02:11:00,mbh,283.00
2021-10-18T02:12:00,mbh,283.00
2021-10-18T02:13:00,mbh,304.00
2021-10-18T02:14:00,mbh,289.00
2021-10-18T02:15:00,mbh,285.00
2021-10-18T02:16:00,mbh,281.00
2021-10-18T02:17:00,mbh,289.00
2021-10-18T02:18:00,mbh,292.00
2021-10-18T02:19:00,mbh,315.00
2021-10-18T02:20:00,mbh,283.00
2021-10-18T02:21:00,mbh,287.00
2021-10-18T02:22:00,mbh,279.00
2021-10-18T02:23:00,mbh,276.00
2021-10-18T02:24:00,mbh,287.00
2021-10-18T02:25:00,mbh,304.00
2021-10-18T02:26:00,mbh,285.00
2021-10-18T02:27:00,mbh,308.00
2021-10-18T02:28:00,mbh,303.00
2021-10-18T02:29:00,mbh,271.00
2021-10-18T02:30:00,mbh,277.00
2021-10-18T02:31:00,mbh,278.00
2021-10-18T02:32:00,mbh,284.00
2021-10-18T02:33:00,mbh,311.00
2021-10-18T02:34:00,mbh,275.00
2021-10-18T02:35:00,mbh,276.00
2021-10-18T02:36:00,mbh,279.00
2021-10-18T02:37:00,mbh,276.00
2021-10-18T02:38:00,mbh,276.00
2021-10-18T02:39:00,mbh,277.00
2021-10-18T02:40:00,mbh,282.00
2021-10-18T02:41:00,mbh,304.00
2021-10-18T02:42:00,mbh,274.00
2021-10-18T02:43:00,mbh,274.00
2021-10-18T02:44:00,mbh,279.00
2021-10-18T02:45:00,mbh,279.00
2021-10-18T02:46:00,mbh,276.00
2021-10-18T02:47:00,mbh,273.00
2021-10-18T02:48:00,mbh,287.00
2021-10-18T02:49:00,mbh,286.00
2021-10-18T02:50:00,mbh,282.00
2021-10-18T02:51:00,mbh,281.00
2021-10-18T02:52:00,mbh,303.00
2021-10-18T02:53:00,mbh,301.00
2021-10-18T02:54:00,mbh,300.00
2021-10-18T02:55:00,mbh,276.00
2021-10-18T02:56:00,mbh,282.00
2021-10-18T02:57:00,mbh,283.00
2021-10-18T02:58:00,mbh,278.00
2021-10-18T02:59:00,mbh,276.00
2021-10-18T03:00:00,mbh,279.00
2021-10-18T03:01:00,mbh,283.00
2021-10-18T03:02:00,mbh,281.00
2021-10-18T03:03:00,mbh,305.00
2021-10-18T03:04:00,mbh,281.00
2021-10-18T03:05:00,mbh,290.00
2021-10-18T03:06:00,mbh,276.00
2021-10-18T03:07:00,mbh,282.00
2021-10-18T03:08:00,mbh,278.00
2021-10-18T03:09:00,mbh,281.00
2021-10-18T03:10:00,mbh,282.00
2021-10-18T03:11:00,mbh,285.00
2021-10-18T03:12:00,mbh,292.00
2021-10-18T03:13:00,mbh,289.00
2021-10-18T03:14:00,mbh,287.00
2021-10-18T03:15:00,mbh,286.00
2021-10-18T03:16:00,mbh,308.00
2021-10-18T03:17:00,mbh,299.00
2021-10-18T03:18:00,mbh,304.00
2021-10-18T03:19:00,mbh,312.00
2021-10-18T03:20:00,mbh,287.00
2021-10-18T03:21:00,mbh,284.00
2021-10-18T03:22:00,mbh,286.00
2021-10-18T03:23:00,mbh,291.00
2021-10-18T03:24:00,mbh,283.00
2021-10-18T03:25:00,mbh,280.00
2021-10-18T03:26:00,mbh,290.00
2021-10-18T03:27:00,mbh,291.00
2021-10-18T03:28:00,mbh,287.00
2021-10-18T03:29:00,mbh,288.00
2021-10-18T03:30:00,mbh,285.00
2021-10-18T03:31:00,mbh,281.00
2021-10-18T03:32:00,mbh,275.00
2021-10-18T03:33:00,mbh,275.00
2021-10-18T03:34:00,mbh,303.00
2021-10-18T03:35:00,mbh,278.00
2021-10-18T03:36:00,mbh,278.00
2021-10-18T03:37:00,mbh,273.00
2021-10-18T03:38:00,mbh,276.00
2021-10-18T03:39:00,mbh,275.00
2021-10-18T03:40:00,mbh,280.00
2021-10-18T03:41:00,mbh,293.00
2021-10-18T03:42:00,mbh,279.00
2021-10-18T03:43:00,mbh,268.00
2021-10-18T03:44:00,mbh,272.00
2021-10-18T03:45:00,mbh,276.00
2021-10-18T03:46:00,mbh,279.00
2021-10-18T03:47:00,mbh,276.00
2021-10-18T03:48:00,mbh,280.00
2021-10-18T03:49:00,mbh,280.00
2021-10-18T03:50:00,mbh,280.00
2021-10-18T03:51:00,mbh,276.00
2021-10-18T03:52:00,mbh,282.00
2021-10-18T03:53:00,mbh,284.00
2021-10-18T03:54:00,mbh,283.00
2021-10-18T03:55:00,mbh,274.00
2021-10-18T03:56:00,mbh,310.00
2021-10-18T03:57:00,mbh,281.00
2021-10-18T03:58:00,mbh,270.00
2021-10-18T03:59:00,mbh,273.00
2021-10-18T04:00:00,mbh,279.00
2021-10-18T04:01:00,mbh,279.00
2021-10-18T04:02:00,mbh,272.00
2021-10-18T04:03:00,mbh,297.00
2021-10-18T04:04:00,mbh,314.00
2021-10-18T04:05:00,mbh,314.00
2021-10-18T04:06:00,mbh,282.00
2021-10-18T04:07:00,mbh,272.00
2021-10-18T04:08:00,mbh,272.00
2021-10-18T04:09:00,mbh,278.00
2021-10-18T04:10:00,mbh,283.00
2021-10-18T04:11:00,mbh,280.00
2021-10-18T04:12:00,mbh,288.00
2021-10-18T04:13:00,mbh,291.00
2021-10-18T04:14:00,mbh,282.00
2021-10-18T04:15:00,mbh,275.00
2021-10-18T04:16:00,mbh,280.00
2021-10-18T04:17:00,mbh,290.00
2021-10-18T04:18:00,mbh,284.00
2021-10-18T04:19:00,mbh,284.00
2021-10-18T04:20:00,mbh,286.00
2021-10-18T04:21:00,mbh,286.00
2021-10-18T04:22:00,mbh,270.00
2021-10-18T04:23:00,mbh,271.00
2021-10-18T04:24:00,mbh,275.00
2021-10-18T04:25:00,mbh,279.00
2021-10-18T04:26:00,mbh,279.00
2021-10-18T04:27:00,mbh,277.00
2021-10-18T04:28:00,mbh,289.00
2021-10-18T04:29:00,mbh,288.00
2021-10-18T04:30:00,mbh,278.00
2021-10-18T04:31:00,mbh,279.00
2021-10-18T04:32:00,mbh,277.00
2021-10-18T04:33:00,mbh,306.00
2021-10-18T04:34:00,mbh,305.00
2021-10-18T04:35:00,mbh,305.00
2021-10-18T04:36:00,mbh,286.00
2021-10-18T04:37:00,mbh,287.00
2021-10-18T04:38:00,mbh,278.00
2021-10-18T04:39:00,mbh,278.00
2021-10-18T04:40:00,mbh,273.00
2021-10-18T04:41:00,mbh,269.00
2021-10-18T04:42:00,mbh,273.00
2021-10-18T04:43:00,mbh,276.00
2021-10-18T04:44:00,mbh,309.00
2021-10-18T04:45:00,mbh,286.00
2021-10-18T04:46:00,mbh,284.00
2021-10-18T04:47:00,mbh,280.00
2021-10-18T04:48:00,mbh,275.00
2021-10-18T04:49:00,mbh,287.00
2021-10-18T04:50:00,mbh,323.00
2021-10-18T04:51:00,mbh,300.00
2021-10-18T04:52:00,mbh,288.00
2021-10-18T04:53:00,mbh,275.00
2021-10-18T04:54:00,mbh,274.00
2021-10-18T04:55:00,mbh,277.00
2021-10-18T04:56:00,mbh,275.00
2021-10-18T04:57:00,mbh,299.00
2021-10-18T04:58:00,mbh,307.00
2021-10-18T04:59:00,mbh,314.00
2021-10-18T05:00:00,mbh,294.00
2021-10-18T05:01:00,mbh,280.00
2021-10-18T05:02:00,mbh,275.00
2021-10-18T05:03:00,mbh,279.00
2021-10-18T05:04:00,mbh,280.00
2021-10-18T05:05:00,mbh,277.00
2021-10-18T05:06:00,mbh,270.00
2021-10-18T05:07:00,mbh,307.00
2021-10-18T05:08:00,mbh,280.00
2021-10-18T05:09:00,mbh,276.00
2021-10-18T05:10:00,mbh,303.00
2021-10-18T05:11:00,mbh,273.00
2021-10-18T05:12:00,mbh,274.00
2021-10-18T05:13:00,mbh,276.00
2021-10-18T05:14:00,mbh,273.00
2021-10-18T05:15:00,mbh,279.00
2021-10-18T05:16:00,mbh,282.00
2021-10-18T05:17:00,mbh,277.00
2021-10-18T05:18:00,mbh,314.00
2021-10-18T05:19:00,mbh,274.00
2021-10-18T05:20:00,mbh,266.00
2021-10-18T05:21:00,mbh,268.00
2021-10-18T05:22:00,mbh,273.00
2021-10-18T05:23:00,mbh,286.00
2021-10-18T05:24:00,mbh,274.00
2021-10-18T05:25:00,mbh,283.00
2021-10-18T05:26:00,mbh,283.00
2021-10-18T05:27:00,mbh,280.00
2021-10-18T05:28:00,mbh,274.00
2021-10-18T05:29:00,mbh,274.00
2021-10-18T05:30:00,mbh,282.00
2021-10-18T05:31:00,mbh,293.00
2021-10-18T05:32:00,mbh,278.00
2021-10-18T05:33:00,mbh,275.00
2021-10-18T05:34:00,mbh,303.00
2021-10-18T05:35:00,mbh,278.00
2021-10-18T05:36:00,mbh,279.00
2021-10-18T05:37:00,mbh,279.00
2021-10-18T05:38:00,mbh,285.00
2021-10-18T05:39:00,mbh,286.00
2021-10-18T05:40:00,mbh,280.00
2021-10-18T05:41:00,mbh,276.00
2021-10-18T05:42:00,mbh,282.00
2021-10-18T05:43:00,mbh,280.00
2021-10-18T05:44:00,mbh,276.00
2021-10-18T05:45:00,mbh,278.00
2021-10-18T05:46:00,mbh,277.00
2021-10-18T05:47:00,mbh,277.00
2021-10-18T05:48:00,mbh,275.00
2021-10-18T05:49:00,mbh,278.00
2021-10-18T05:50:00,mbh,280.00
2021-10-18T05:51:00,mbh,276.00
2021-10-18T05:52:00,mbh,280.00
2021-10-18T05:53:00,mbh,278.00
2021-10-18T05:54:00,mbh,277.00
2021-10-18T05:55:00,mbh,295.00
2021-10-18T05:56:00,mbh,272.00
2021-10-18T05:57:00,mbh,276.00
2021-10-18T05:58:00,mbh,275.00
2021-10-18T05:59:00,mbh,274.00
2021-10-18T06:00:00,mbh,271.00
2021-10-18T06:01:00,mbh,276.00
2021-10-18T06:02:00,mbh,284.00
2021-10-18T06:03:00,mbh,282.00
2021-10-18T06:04:00,mbh,277.00
2021-10-18T06:05:00,mbh,271.00
2021-10-18T06:06:00,mbh,272.00
2021-10-18T06:07:00,mbh,294.00
2021-10-18T06:08:00,mbh,274.00
2021-10-18T06:09:00,mbh,282.00
2021-10-18T06:10:00,mbh,283.00
2021-10-18T06:11:00,mbh,277.00
2021-10-18T06:12:00,mbh,279.00
2021-10-18T06:13:00,mbh,287.00
2021-10-18T06:14:00,mbh,284.00
2021-10-18T06:15:00,mbh,284.00
2021-10-18T06:16:00,mbh,292.00
2021-10-18T06:17:00,mbh,317.00
2021-10-18T06:18:00,mbh,303.00
2021-10-18T06:19:00,mbh,280.00
2021-10-18T06:20:00,mbh,276.00
2021-10-18T06:21:00,mbh,279.00
2021-10-18T06:22:00,mbh,279.00
2021-10-18T06:23:00,mbh,273.00
2021-10-18T06:24:00,mbh,286.00
2021-10-18T06:25:00,mbh,284.00
2021-10-18T06:26:00,mbh,273.00
2021-10-18T06:27:00,mbh,272.00
2021-10-18T06:28:00,mbh,301.00
2021-10-18T06:29:00,mbh,276.00
2021-10-18T06:30:00,mbh,283.00
2021-10-18T06:31:00,mbh,285.00
2021-10-18T06:32:00,mbh,288.00
2021-10-18T06:33:00,mbh,291.00
2021-10-18T06:34:00,mbh,280.00
2021-10-18T06:35:00,mbh,277.00
2021-10-18T06:36:00,mbh,300.00
2021-10-18T06:37:00,mbh,276.00
2021-10-18T06:38:00,mbh,281.00
2021-10-18T06:39:00,mbh,282.00
2021-10-18T06:40:00,mbh,286.00
2021-10-18T06:41:00,mbh,273.00
2021-10-18T06:42:00,mbh,277.00
2021-10-18T06:43:00,mbh,291.00
2021-10-18T06:44:00,mbh,271.00
2021-10-18T06:45:00,mbh,270.00
2021-10-18T06:46:00,mbh,266.00
2021-10-18T06:47:00,mbh,301.00
2021-10-18T06:48:00,mbh,277.00
2021-10-18T06:49:00,mbh,277.00
2021-10-18T06:50:00,mbh,272.00
2021-10-18T06:51:00,mbh,265.00
2021-10-18T06:52:00,mbh,263.00
2021-10-18T06:53:00,mbh,289.00
2021-10-18T06:54:00,mbh,267.00
2021-10-18T06:55:00,mbh,276.00
2021-10-18T06:56:00,mbh,274.00
2021-10-18T06:57:00,mbh,278.00
2021-10-18T06:58:00,mbh,278.00
2021-10-18T06:59:00,mbh,281.00
2021-10-18T07:00:00,mbh,280.00
2021-10-18T07:01:00,mbh,312.00
2021-10-18T07:02:00,mbh,334.00
2021-10-18T07:03:00,mbh,359.00
2021-10-18T07:04:00,mbh,361.00
2021-10-18T07:05:00,mbh,365.00
2021-10-18T07:06:00,mbh,367.00
2021-10-18T07:07:00,mbh,371.00
2021-10-18T07:08:00,mbh,366.00
2021-10-18T07:09:00,mbh,373.00
2021-10-18T07:10:00,mbh,378.00
2021-10-18T07:11:00,mbh,381.00
2021-10-18T07:12:00,mbh,374.00
2021-10-18T07:13:00,mbh,397.00
2021-10-18T07:14:00,mbh,372.00
2021-10-18T07:15:00,mbh,376.00
2021-10-18T07:16:00,mbh,376.00
2021-10-18T07:17:00,mbh,383.00
2021-10-18T07:18:00,mbh,389.00
2021-10-18T07:19:00,mbh,381.00
2021-10-18T07:20:00,mbh,398.00
2021-10-18T07:21:00,mbh,398.00
2021-10-18T07:22:00,mbh,403.00
2021-10-18T07:23:00,mbh,377.00
2021-10-18T07:24:00,mbh,383.00
2021-10-18T07:25:00,mbh,382.00
2021-10-18T07:26:00,mbh,374.00
2021-10-18T07:27:00,mbh,381.00
2021-10-18T07:28:00,mbh,400.00
2021-10-18T07:29:00,mbh,402.00
2021-10-18T07:30:00,mbh,384.00
2021-10-18T07:31:00,mbh,386.00
2021-10-18T07:32:00,mbh,386.00
2021-10-18T07:33:00,mbh,387.00
2021-10-18T07:34:00,mbh,384.00
2021-10-18T07:35:00,mbh,389.00
2021-10-18T07:36:00,mbh,400.00
2021-10-18T07:37:00,mbh,377.00
2021-10-18T07:38:00,mbh,384.00
2021-10-18T07:39:00,mbh,382.00
2021-10-18T07:40:00,mbh,390.00
2021-10-18T07:41:00,mbh,410.00
2021-10-18T07:42:00,mbh,385.00
2021-10-18T07:43:00,mbh,408.00
2021-10-18T07:44:00,mbh,390.00
2021-10-18T07:45:00,mbh,395.00
2021-10-18T07:46:00,mbh,442.00
2021-10-18T07:47:00,mbh,403.00
2021-10-18T07:48:00,mbh,435.00
2021-10-18T07:49:00,mbh,434.00
2021-10-18T07:50:00,mbh,389.00
2021-10-18T07:51:00,mbh,393.00
2021-10-18T07:52:00,mbh,400.00
2021-10-18T07:53:00,mbh,395.00
2021-10-18T07:54:00,mbh,390.00
2021-10-18T07:55:00,mbh,414.00
2021-10-18T07:56:00,mbh,415.00
2021-10-18T07:57:00,mbh,394.00
2021-10-18T07:58:00,mbh,386.00
2021-10-18T07:59:00,mbh,401.00
2021-10-18T08:00:00,mbh,404.00
2021-10-18T08:01:00,mbh,401.00
2021-10-18T08:02:00,mbh,413.00
2021-10-18T08:03:00,mbh,427.00
2021-10-18T08:04:00,mbh,443.00
2021-10-18T08:05:00,mbh,448.00
2021-10-18T08:06:00,mbh,487.00
2021-10-18T08:07:00,mbh,462.00
2021-10-18T08:08:00,mbh,454.00
2021-10-18T08:09:00,mbh,460.00
2021-10-18T08:10:00,mbh,456.00
2021-10-18T08:11:00,mbh,460.00
2021-10-18T08:12:00,mbh,492.00
2021-10-18T08:13:00,mbh,474.00
2021-10-18T08:14:00,mbh,474.00
2021-10-18T08:15:00,mbh,466.00
2021-10-18T08:16:00,mbh,487.00
2021-10-18T08:17:00,mbh,468.00
2021-10-18T08:18:00,mbh,487.00
2021-10-18T08:19:00,mbh,493.00
2021-10-18T08:20:00,mbh,499.00
2021-10-18T08:21:00,mbh,503.00
2021-10-18T08:22:00,mbh,459.00
2021-10-18T08:23:00,mbh,458.00
2021-10-18T08:24:00,mbh,458.00
2021-10-18T08:25:00,mbh,469.00
2021-10-18T08:26:00,mbh,480.00
2021-10-18T08:27:00,mbh,470.00
2021-10-18T08:28:00,mbh,462.00
2021-10-18T08:29:00,mbh,453.00
2021-10-18T08:30:00,mbh,463.00
2021-10-18T08:31:00,mbh,465.00
2021-10-18T08:32:00,mbh,461.00
2021-10-18T08:33:00,mbh,470.00
2021-10-18T08:34:00,mbh,498.00
2021-10-18T08:35:00,mbh,489.00
2021-10-18T08:36:00,mbh,477.00
2021-10-18T08:37:00,mbh,489.00
2021-10-18T08:38:00,mbh,460.00
2021-10-18T08:39:00,mbh,460.00
2021-10-18T08:40:00,mbh,485.00
2021-10-18T08:41:00,mbh,463.00
2021-10-18T08:42:00,mbh,461.00
2021-10-18T08:43:00,mbh,465.00
2021-10-18T08:44:00,mbh,450.00
2021-10-18T08:45:00,mbh,464.00
2021-10-18T08:46:00,mbh,465.00
2021-10-18T08:47:00,mbh,491.00
2021-10-18T08:48:00,mbh,462.00
2021-10-18T08:49:00,mbh,461.00
2021-10-18T08:50:00,mbh,453.00
2021-10-18T08:51:00,mbh,472.00
2021-10-18T08:52:00,mbh,468.00
2021-10-18T08:53:00,mbh,482.00
2021-10-18T08:54:00,mbh,480.00
2021-10-18T08:55:00,mbh,464.00
2021-10-18T08:56:00,mbh,465.00
2021-10-18T08:57:00,mbh,461.00
2021-10-18T08:58:00,mbh,461.00
2021-10-18T08:59:00,mbh,471.00
2021-10-18T09:00:00,mbh,477.00
2021-10-18T09:01:00,mbh,484.00
2021-10-18T09:02:00,mbh,473.00
2021-10-18T09:03:00,mbh,472.00
2021-10-18T09:04:00,mbh,475.00
2021-10-18T09:05:00,mbh,478.00
2021-10-18T09:06:00,mbh,502.00
2021-10-18T09:07:00,mbh,512.00
2021-10-18T09:08:00,mbh,489.00
2021-10-18T09:09:00,mbh,489.00
2021-10-18T09:10:00,mbh,464.00
2021-10-18T09:11:00,mbh,457.00
2021-10-18T09:12:00,mbh,459.00
2021-10-18T09:13:00,mbh,475.00
2021-10-18T09:14:00,mbh,487.00
2021-10-18T09:15:00,mbh,479.00
2021-10-18T09:16:00,mbh,496.00
2021-10-18T09:17:00,mbh,481.00
2021-10-18T09:18:00,mbh,483.00
2021-10-18T09:19:00,mbh,470.00
2021-10-18T09:20:00,mbh,470.00
2021-10-18T09:21:00,mbh,473.00
2021-10-18T09:22:00,mbh,475.00
2021-10-18T09:23:00,mbh,470.00
2021-10-18T09:24:00,mbh,471.00
2021-10-18T09:25:00,mbh,467.00
2021-10-18T09:26:00,mbh,496.00
2021-10-18T09:27:00,mbh,471.00
2021-10-18T09:28:00,mbh,472.00
2021-10-18T09:29:00,mbh,476.00
2021-10-18T09:30:00,mbh,477.00
2021-10-18T09:31:00,mbh,483.00
2021-10-18T09:32:00,mbh,505.00
2021-10-18T09:33:00,mbh,486.00
2021-10-18T09:34:00,mbh,485.00
2021-10-18T09:35:00,mbh,487.00
2021-10-18T09:36:00,mbh,485.00
2021-10-18T09:37:00,mbh,486.00
2021-10-18T09:38:00,mbh,492.00
2021-10-18T09:39:00,mbh,493.00
2021-10-18T09:40:00,mbh,496.00
2021-10-18T09:41:00,mbh,478.00
2021-10-18T09:42:00,mbh,476.00
2021-10-18T09:43:00,mbh,474.00
2021-10-18T09:44:00,mbh,473.00
2021-10-18T09:45:00,mbh,498.00
2021-10-18T09:46:00,mbh,494.00
2021-10-18T09:47:00,mbh,496.00
2021-10-18T09:48:00,mbh,466.00
2021-10-18T09:49:00,mbh,475.00
2021-10-18T09:50:00,mbh,489.00
2021-10-18T09:51:00,mbh,465.00
2021-10-18T09:52:00,mbh,464.00
2021-10-18T09:53:00,mbh,471.00
2021-10-18T09:54:00,mbh,472.00
2021-10-18T09:55:00,mbh,467.00
2021-10-18T09:56:00,mbh,463.00
2021-10-18T09:57:00,mbh,487.00
2021-10-18T09:58:00,mbh,468.00
2021-10-18T09:59:00,mbh,465.00
2021-10-18T10:00:00,mbh,468.00
2021-10-18T10:01:00,mbh,474.00
2021-10-18T10:02:00,mbh,482.00
2021-10-18T10:03:00,mbh,493.00
2021-10-18T10:04:00,mbh,468.00
2021-10-18T10:05:00,mbh,469.00
2021-10-18T10:06:00,mbh,472.00
2021-10-18T10:07:00,mbh,465.00
2021-10-18T10:08:00,mbh,504.00
2021-10-18T10:09:00,mbh,504.00
2021-10-18T10:10:00,mbh,491.00
2021-10-18T10:11:00,mbh,495.00
2021-10-18T10:12:00,mbh,472.00
2021-10-18T10:13:00,mbh,480.00
2021-10-18T10:14:00,mbh,472.00
2021-10-18T10:15:00,mbh,482.00
2021-10-18T10:16:00,mbh,507.00
2021-10-18T10:17:00,mbh,479.00
2021-10-18T10:18:00,mbh,483.00
2021-10-18T10:19:00,mbh,479.00
2021-10-18T10:20:00,mbh,504.00
2021-10-18T10:21:00,mbh,484.00
2021-10-18T10:22:00,mbh,497.00
2021-10-18T10:23:00,mbh,488.00
2021-10-18T10:24:00,mbh,504.00
2021-10-18T10:25:00,mbh,489.00
2021-10-18T10:26:00,mbh,493.00
2021-10-18T11:10:00,mbh,471.00
2021-10-18T11:15:00,mbh,503.00
2021-10-18T11:20:00,mbh,473.00
2021-10-18T11:25:00,mbh,474.00
2021-10-18T11:30:00,mbh,485.00
2021-10-18T11:35:00,mbh,519.00
2021-10-18T11:40:00,mbh,484.00
2021-10-18T11:45:00,mbh,487.00
2021-10-18T11:50:00,mbh,493.00
2021-10-18T11:55:00,mbh,504.00
2021-10-18T12:00:00,mbh,469.00
2021-10-18T12:05:00,mbh,484.00
2021-10-18T12:10:00,mbh,484.00
2021-10-18T12:15:00,mbh,486.00
2021-10-18T12:20:00,mbh,477.00
2021-10-18T12:25:00,mbh,474.00
2021-10-18T12:30:00,mbh,480.00
2021-10-18T12:35:00,mbh,499.00
2021-10-18T12:40:00,mbh,483.00
2021-10-18T12:45:00,mbh,500.00
2021-10-18T12:50:00,mbh,501.00
2021-10-18T12:55:00,mbh,486.00
2021-10-18T13:00:00,mbh,476.00
2021-10-18T13:05:00,mbh,478.00
2021-10-18T13:10:00,mbh,470.00
2021-10-18T13:15:00,mbh,506.00
2021-10-18T13:20:00,mbh,481.00
2021-10-18T13:25:00,mbh,477.00
2021-10-18T13:30:00,mbh,483.00
2021-10-18T13:35:00,mbh,479.00
2021-10-18T13:40:00,mbh,516.00
2021-10-18T13:45:00,mbh,486.00
2021-10-18T13:50:00,mbh,485.00
2021-10-18T13:55:00,mbh,463.00
2021-10-18T14:00:00,mbh,521.00
2021-10-18T14:05:00,mbh,476.00
2021-10-18T14:10:00,mbh,498.00
2021-10-18T14:15:00,mbh,491.00
2021-10-18T14:20:00,mbh,482.00
2021-10-18T14:25:00,mbh,560.00
2021-10-18T14:30:00,mbh,485.00
2021-10-18T14:35:00,mbh,485.00
2021-10-18T14:40:00,mbh,474.00
2021-10-18T14:45:00,mbh,488.00
2021-10-18T14:50:00,mbh,496.00
2021-10-18T14:55:00,mbh,488.00
2021-10-18T15:00:00,mbh,478.00
2021-10-18T15:05:00,mbh,481.00
2021-10-18T15:10:00,mbh,484.00
2021-10-18T15:15:00,mbh,489.00
2021-10-18T15:20:00,mbh,511.00
2021-10-18T15:25:00,mbh,488.00
2021-10-18T15:30:00,mbh,473.00
2021-10-18T15:35:00,mbh,499.00
2021-10-18T15:40:00,mbh,486.00
2021-10-18T15:45:00,mbh,476.00
2021-10-18T15:50:00,mbh,480.00
2021-10-18T15:55:00,mbh,490.00
2021-10-18T16:00:00,mbh,480.00
2021-10-18T16:05:00,mbh,473.00
2021-10-18T16:10:00,mbh,496.00
2021-10-18T16:15:00,mbh,488.00
2021-10-18T16:20:00,mbh,487.00
2021-10-18T16:25:00,mbh,467.00
2021-10-18T16:30:00,mbh,497.00
2021-10-18T16:35:00,mbh,502.00
2021-10-18T16:40:00,mbh,466.00
2021-10-18T16:45:00,mbh,469.00
2021-10-18T16:50:00,mbh,470.00
2021-10-18T16:55:00,mbh,471.00
2021-10-18T17:00:00,mbh,463.00
2021-10-18T17:05:00,mbh,476.00
2021-10-18T17:10:00,mbh,466.00
2021-10-18T17:15:00,mbh,489.00
2021-10-18T17:20:00,mbh,467.00
2021-10-18T17:25:00,mbh,469.00
2021-10-18T17:30:00,mbh,483.00
2021-10-18T17:35:00,mbh,456.00
2021-10-18T17:40:00,mbh,466.00
2021-10-18T17:45:00,mbh,458.00
2021-10-18T17:50:00,mbh,456.00
2021-10-18T17:55:00,mbh,462.00
2021-10-18T18:00:00,mbh,481.00
2021-10-18T18:05:00,mbh,437.00
2021-10-18T18:10:00,mbh,441.00
2021-10-18T18:15:00,mbh,433.00
2021-10-18T18:20:00,mbh,465.00
2021-10-18T18:25:00,mbh,445.00
2021-10-18T18:30:00,mbh,437.00
2021-10-18T18:35:00,mbh,448.00
2021-10-18T18:40:00,mbh,440.00
2021-10-18T18:45:00,mbh,436.00
2021-10-18T18:50:00,mbh,438.00
2021-10-18T18:55:00,mbh,468.00
2021-10-18T19:00:00,mbh,434.00
2021-10-18T19:05:00,mbh,441.00
2021-10-18T19:10:00,mbh,446.00
2021-10-18T19:15:00,mbh,456.00
2021-10-18T19:20:00,mbh,454.00
2021-10-18T19:25:00,mbh,482.00
2021-10-18T19:30:00,mbh,452.00
2021-10-18T19:35:00,mbh,441.00
2021-10-18T19:40:00,mbh,431.00
2021-10-18T19:45:00,mbh,451.00
2021-10-18T19:50:00,mbh,435.00
2021-10-18T19:55:00,mbh,436.00
2021-10-18T20:00:00,mbh,435.00
2021-10-18T20:05:00,mbh,436.00
2021-10-18T20:10:00,mbh,447.00
2021-10-18T20:15:00,mbh,438.00
2021-10-18T20:20:00,mbh,460.00
2021-10-18T20:25:00,mbh,434.00
2021-10-18T20:30:00,mbh,458.00
2021-10-18T20:35:00,mbh,427.00
2021-10-18T20:40:00,mbh,461.00
2021-10-18T20:45:00,mbh,426.00
2021-10-18T20:50:00,mbh,432.00
2021-10-18T20:55:00,mbh,466.00
2021-10-18T21:00:00,mbh,455.00
2021-10-18T21:05:00,mbh,445.00
2021-10-18T21:10:00,mbh,420.00
2021-10-18T21:15:00,mbh,432.00
2021-10-18T21:20:00,mbh,428.00
2021-10-18T21:25:00,mbh,451.00
2021-10-18T21:30:00,mbh,428.00
2021-10-18T21:35:00,mbh,425.00
2021-10-18T21:40:00,mbh,432.00
2021-10-18T21:45:00,mbh,431.00
2021-10-18T21:50:00,mbh,416.00
2021-10-18T21:55:00,mbh,420.00
2021-10-18T22:00:00,mbh,422.00
2021-10-18T22:05:00,mbh,331.00
2021-10-18T22:10:00,mbh,325.00
2021-10-18T22:15:00,mbh,332.00
2021-10-18T22:20:00,mbh,320.00
2021-10-18T22:25:00,mbh,316.00
2021-10-18T22:30:00,mbh,324.00
2021-10-18T22:35:00,mbh,315.00
2021-10-18T22:40:00,mbh,306.00
2021-10-18T22:45:00,mbh,346.00
2021-10-18T22:50:00,mbh,317.00
2021-10-18T22:55:00,mbh,321.00
2021-10-18T23:00:00,mbh,315.00
2021-10-18T23:05:00,mbh,319.00
2021-10-18T23:10:00,mbh,321.00
2021-10-18T23:15:00,mbh,345.00